STARLINK-1752, 46338

Orbit data source: Space-Track

STARLINK-1752, 46338 is a payload satellite owned by SpaceX/Seattle (US) in LEO that was launched on Thu, 03 Sep 2020 UTC via an FALCON 9 launch vehicle from the Air Force Eastern Test Range (AFETR). Payload-class satellites include a variety of spacecraft equipped with specific instruments for various scientific and technological missions. These include communications satellites like Starlink; space stations such as the ISS; scientific satellites like the Hubble; Earth observation satellites from companies like Planet Labs, Umbra, and HawkEye 360; GPS; miniature CubeSats for education and research; and military/defense satellites.

Loading next visibility...
Identifier
46338, 2020-062P
Orbit
LEO
Country
Flag of USUS
Related business
Manufacturer
SpaceX/Seattle
Mission
Operational Commercial Communications
Bus & Motor
STARLINK, Unknown motor
Mass
260 kg wet, ~248 kg dry
Launch date (UTC)
2020-09-03 (5 years ago)
Launch vehicle
FALCON 9
Launch site
Air Force Eastern Test Range (AFETR)
Object type
Payload
Rocket body
Debris
Shape & HBR
Box + 1 Pan, 10.1 m
Radar Cross Section
13.562 m², Large (>1 m²)

Expand to show TLE details & history
Last TLE update: 3 hours ago

TLE from 3 hours ago
0 STARLINK-1752
1 46338U 20062P   25306.58335647  .01807362  00000-0  49891-1 0  9990
2 46338  53.0556 225.9796 0001702  95.5068 274.3365 15.33195092  5792
Epoch: 2025-11-02T14:00Z
TLE epoch observation values (Epoch: 2025-11-02T14:00:01.999Z)
Latitude
7.80622°
Longitude
-20.24096°
Altitude
466.412 km
Speed
7.635 km/s
True Right ascension
15h 27m 27s
True Declination
7° 45' 29"
Sunlit
Object was in daylight at epoch
Visualization orbit readout
Latitude
Unknown
Longitude
Unknown
Altitude
Unknown
Speed
Unknown
Apparent Right ascension
Unknown
Apparent Declination
Unknown
Sunlit
N/A
Visualization observer readout
Local Sidereal Time
12:38:21
Azimuth
Unknown
Elevation
Unknown
Doppler factor
Unknown
Orbital elements
Apogee altitude
467.725 km
Perigee altitude
465.396 km
Semi-major axis
6,844.697 km
Eccentricity
0.00017
Inclination
53.0556°
RAAN
225.9796°
Arg. of periapsis
95.5068°
True anomaly
274.31705°
Mean anomaly
274.3365°
Eccentric anomaly
274.32678°
Mean motion
3.83276 °/min
Orbital period
93.93 mins
BSTAR
0.049891
Loading maneuver chart data...
Computing Atmospheric mass density...
Loading historical data...
Loading historical data...
Loading historical data...
Loading historical data...
Loading historical data...
Loading historical data...
Loading historical data...

Documentation

Showing up to 5 results
|